Погода в Байките

Погода в Байките : погода сейчас, прогноз погоды и архив. Всё, что Вы хотите узнать о погоде в Байките!

Хотите узнать прогноз погоды в Байките? Тогда Вам сюда: Погода в Байките

Поиск расширенной информации на нашем сайте:

Другие новости

Новости СМИ2

Главная страница сайта

Новости сайта

03.07.2017

Напоминаем, что на нашем специализированном сайте Метеоцентр.Азия вы можете получить высокодетализированные автоматические прогнозы погоды по пунктам России, СНГ и мира в авиационном формате (включающие направление и скорость ветра, видимость, явления погоды, количество и форму облачности, нижнюю и верхнюю границу облачности).


Погода в Байките - сегодня

Время (UTC), дата Ветер
(°,м/с) 
Видим.   Явления Облачность Т
(°С)
Тd
(°С)
f(%) Тe
(°С)
Pmin
(гПа)
dP
(гПа)
Po
(мм)
O2
(г/м3)
Тmin Tmax R s Состояние
почвы
15 18.02.18 тихо ()   4000 м  слаб. снег  10/0 средняя, верхняя 
[Ac trans|Cs]
-22.5 -25 80 -23  1028.6  -0.2  746  329           
18 18.02.18 тихо ()   4000 м  слаб. снег  10/0 верхняя 
[Cs]
-24.1 -26.7 79 -24  1028.2  -0.6  745  331           
21 18.02.18 тихо ()   4000 м  слаб. снег  10/0 верхняя 
[Cs]
-24.3 -26.8 80 -24  1027.8  -0.4  745  331           
00 19.02.18 тихо ()   4000 м  в посл. час снег  6/0 верхняя 
[Ci fib]
-27.2 -29.6 80 -27  1028.1  -0.1  745  335  -27.2    0.2  79  равномерный
сухой снег
100% 
03 19.02.18 тихо ()   20000 м    10/0 верхняя 
[Ci fib]
-27.9 -30.3 80 -28  1028.5  -0.1  745  336  -27.9         
06 19.02.18 тихо ()   20000 м    10/0 верхняя 
[Cs]
-21.2 -26 65 -21  1026  -1.2  744  327           
09 19.02.18 300 (СЗ) 20000 м  слаб. снег  10/0 средняя, верхняя 
[Ac trans|Cs]
-18.2 -21.5 75 -18  1024.5  -1  743  322           
12 19.02.18 350 (С) 4000 м  слаб. снег  10/0 средняя 
[Ac As]
-18.2 -20.8 80 -18  1023.6  -0.9  743  322    -18.2  0.6     
15 19.02.18 тихо ()   4000 м  слаб. снег  10/3 1000 м средняя 
[Sc|As op]
-19 -21.6 80 -19  1022.7  -1  742  323           
18 19.02.18 тихо ()   4000 м  слаб. снег  10/4 1000 м средняя 
[Sc|As op]
-19.6 -22.2 80 -20  1021.9  -0.8  741  323           
21 19.02.18 тихо ()   4000 м  слаб. снег  10/4 1000 м средняя 
[Sc|As op]
-21.7 -24.2 80 -22  1022.1  -0.1  741  326           
00 20.02.18 тихо ()   4000 м  {снег}  3/0 верхняя 
[Ci fib]
-23.2 -25.7 80 -23  1022.7  0.3  741  328  -23.2    79  равномерный
сухой снег
100% 
06 20.02.18 тихо ()   20000 м  слаб. снег  10/0 средняя, верхняя 
[Ac trans|Cs]
-18.4 -21.7 75 -18  1022.3  -0.5  742  322           
09 20.02.18 тихо ()   10 км  слаб. снег  10/0 средняя 
[Ac As]
-15.3 -18 80 -15  1022.1  0.2  742  318           
12 20.02.18 тихо ()   4000 м  {снег}  1/0 верхняя 
[Ci sp]
-18.7 -20.6 85 -19  1023.6  743  323    -15.1  0.5     
15 20.02.18 тихо ()   4000 м    3/0 верхняя 
[Ci sp]
-22.4 -24.9 80 -22  1024.1  0.1  743  328           
18 20.02.18 тихо ()   4000 м    10/0 верхняя 
[Cs]
-24.2 -26.7 80 -24  1024.5  0.1  743  330           
21 20.02.18 тихо ()   4000 м    10/0 верхняя 
[Cs]
-24.1 -26.7 79 -24  1024.7  0.2  743  330           
00 21.02.18 тихо ()   4000 м  слаб. снег  10/0 верхняя 
[Cs]
-26.2 -28.7 79 -26  1025.2  0.2  743  333  -26.2    0.2  79  равномерный
сухой снег
100% 
06 21.02.18 тихо ()   20000 м  {снег}  ясно 
-20.3 -24.4 70 -20  1024.8  743  325           
09 21.02.18 тихо ()   20000 м    ясно 
-17 -21.2 70 -17  1025  0.5  744  321           
12 21.02.18 тихо ()   4000 м    ясно 
-20.1 -22.7 80 -20  1026.2  0.8  744  325    -16.5  0.0     
15 21.02.18 тихо ()   4000 м    ясно 
-25.9 -28.4 79 -26  1027.4  0.4  745  333           
18 21.02.18 тихо ()   4000 м    ясно 
-29 -31.4 80 -29  1028  0.2  745  338           
21 21.02.18 тихо ()   4000 м    ясно 
-31 -33.4 79 -31  1028.5  0.2  745  341           
Время (UTC), дата Ветер
(°,м/с) 
Видим.   Явления Облачность Т
(°С)
Тd
(°С)
f(%) Тe
(°С)
Pmin
(гПа)
dP
(гПа)
Po
(мм)
O2
(г/м3)
Тmin Tmax R s Состояние
почвы

Для получения пояснительной информации подведите курсор к названию столбца.

ПОГОДА в Байките - архив

Всё, что Вы хотите узнать о погоде в Байките - удобно и подробно!

Выберите нужную дату (начиная с 1 января 2015* года) и нажмите кнопку "Найти".
Будут отображены архивные сводки погоды по пункту Байкит, начиная с указанной даты.


Отображать данные в формате CSV (для использования в таблицах Excel)


Внимание! Наш архив погоды предназначен исключительно для личного некоммерческого использования в познавательных целях. Если Вам необходимы официальные справки о состоянии погоды (для производственных, юридических, коммерческих и т.п. целей), обращайтесь в органы Росгидромета.

*Примечание: данная дата относится к архиву по метеостанциям СССР (Россия, СНГ, Балтия).
Архив по метеостанциям Зарубежной Европы и Азии (кроме Китая) хранится 10 дней, по другим регионам земного шара (Китай, Африка, Америка, Австралия, Океания) - 1 день.

Байкит - район местоположения метеостанции


Название, широта, долгота, высота метеостанции:
Байкит 61.7°ш. 96.4°д. 262 м над ур. моря [Российская Федерация]

Дополнительная информация

В oтличие oт бoльшинства пoгoдных сайтoв мы публикуем пoдрoбную метеoинфoрмацию в детальнoм прoфессиoнальнoм фoрмате.

Характеристики температуры и влажнoсти вoздуха измеряются на высoте 2 м в тени вдали oт зданий и деревьев.
Скoрoсть ветра измеряется на высoте 10 м (на урoвне рoста челoвека скoрoсть ветра ниже в 1.5-2 раза). Если метеoстанция нахoдится в гoрoде или в лесу, тo скoрoсть ветра занижена на 2-4 м/с пo сравнению с oткрытым местoм. Скoрoсть ветра над акватoриями крупных рек и oзёр, а также на вершинах хoлмoв на 2-5 м/с выше, чем в oбычных услoвиях.
Атмoсфернoе давление в разных тoчках местнoсти мoжет значительнo oтличаться oт давления на метеoстанции, в зависимoсти oт услoвий рельефа (при пoдъёме на 10 м давление пoнижается примернo на 1 мм рт.ст.).